This demonstration page uses our WeatherBlox Daily Observations layout. Learn more.

Left ArrowRight Arrow

Hourly Observations for February 17, 2022

Temp ( °F °C ) Dew Point ( °F °C ) Humidity (%) Winds ( mph kmh ) Pressure ( in mb ) Visibility ( mi km ) Precip ( " mm )
12:15 am 00:15 Cloudy 25 -3.7 13 -10.5 60 60 NNE 17 28 30.26 1025 10 16 0.00 0.00
12:35 am 00:35 Cloudy 25 -3.8 13 -10.5 60 60 NNE 22 35 30.27 1025 10 16 0.00 0.00
12:55 am 00:55 Cloudy 25 -3.8 14 -10.1 62 62 N 20 31 30.29 1026 10 16 0.00 0.00
1:15 am 01:15 Cloudy 25 -4 13 -10.4 61 61 N 16 26 30.29 1026 10 16 0.00 0.00
1:35 am 01:35 Cloudy 24 -4.2 10 -12 55 55 N 28 44 30.27 1025 10 16 0.00 0.00
1:55 am 01:55 Mostly Cloudy 24 -4.6 8 -13.1 52 52 N 24 39 30.28 1025 10 16 0.00 0.00
2:15 am 02:15 Mostly Cloudy 23 -5.2 5 -15 46 46 N 24 39 30.31 1026 10 16 0.00 0.00
2:35 am 02:35 Cloudy 22 -5.4 3 -16.2 43 43 N 29 46 30.29 1026 10 16 0.00 0.00
2:55 am 02:55 Cloudy 22 -5.6 4 -15.4 46 46 NNE 18 30 30.33 1027 10 16 0.00 0.00
3:15 am 03:15 Cloudy 21 -6 5 -15 49 49 NNE 18 30 30.35 1028 10 16 0.00 0.00
3:35 am 03:35 Cloudy 20 -6.5 2 -16.9 44 44 NNE 23 37 30.36 1028 10 16 0.00 0.00
3:55 am 03:55 Cloudy 20 -6.8 -3 -19.3 37 37 NNE 22 35 30.36 1028 10 16 0.00 0.00
4:15 am 04:15 Cloudy 19 -7.2 -2 -19.1 38 38 N 20 31 30.38 1029 10 16 0.00 0.00
4:35 am 04:35 Cloudy 19 -7.5 -1 -18.5 41 41 N 22 35 30.37 1028 10 16 0.00 0.00
4:55 am 04:55 Cloudy 18 -7.6 -2 -18.8 41 41 N 21 33 30.38 1029 10 16 0.00 0.00
5:15 am 05:15 Cloudy 18 -7.7 -2 -19 40 40 N 21 33 30.38 1029 10 16 0.00 0.00
5:35 am 05:35 Cloudy 18 -7.8 -4 -20.2 37 37 N 23 37 30.39 1029 10 16 0.00 0.00
5:55 am 05:55 Mostly Cloudy 18 -8 -5 -20.3 37 37 N 22 35 30.39 1029 10 16 0.00 0.00
6:15 am 06:15 Partly Cloudy 17 -8.3 -5 -20.4 37 37 N 23 37 30.42 1030 10 16 0.00 0.00
6:35 am 06:35 Clear 17 -8.4 -2 -18.8 43 43 N 14 22 30.43 1030 10 16 0.00 0.00
6:55 am 06:55 Clear 17 -8.5 0 -18 47 47 N 16 26 30.43 1030 10 16 0.00 0.00
7:15 am 07:15 Clear 16 -9 -1 -18.6 46 46 N 17 28 30.45 1031 10 16 0.00 0.00
7:35 am 07:35 Sunny 15 -9.2 -5 -20.3 40 40 N 20 31 30.45 1031 10 16 0.00 0.00
7:55 am 07:55 Sunny 15 -9.5 -4 -20 42 42 N 15 24 30.46 1032 10 16 0.00 0.00
8:15 am 08:15 Sunny 15 -9.5 -5 -20.8 40 40 N 14 22 30.46 1032 10 16 0.00 0.00
8:35 am 08:35 Sunny 15 -9.5 -5 -20.4 41 41 N 16 26 30.48 1032 10 16 0.00 0.00
8:55 am 08:55 Sunny 15 -9.5 -4 -19.9 43 43 N 16 26 30.47 1032 10 16 0.00 0.00
9:15 am 09:15 Sunny 15 -9.6 -5 -20.3 42 42 N 15 24 30.48 1032 10 16 0.00 0.00
9:35 am 09:35 Sunny 15 -9.5 -5 -20.3 41 41 NNW 14 22 30.49 1033 10 16 0.00 0.00
9:55 am 09:55 Sunny 15 -9.2 -6 -21.3 37 37 N 13 20 30.49 1032 10 16 0.00 0.00
10:15 am 10:15 Sunny 17 -8.1 -4 -20.2 37 37 NNW 12 19 30.48 1032 10 16 0.00 0.00
10:35 am 10:35 Sunny 19 -7.3 -6 -21.1 33 33 N 14 22 30.47 1032 10 16 0.00 0.00
10:55 am 10:55 Sunny 20 -6.8 -5 -20.7 32 32 N 12 19 30.46 1032 10 16 0.00 0.00
11:15 am 11:15 Sunny 21 -6.1 -5 -20.3 32 32 NNW 10 17 30.46 1031 10 16 0.00 0.00
11:35 am 11:35 Sunny 22 -5.5 -5 -20.7 29 29 N 9 15 30.44 1031 10 16 0.00 0.00
11:55 am 11:55 Sunny 23 -4.8 -5 -20.4 29 29 N 10 17 30.43 1031 10 16 0.00 0.00
12:15 pm 12:15 Sunny 24 -4.2 -5 -20.8 26 26 NNW 7 11 30.42 1030 10 16 0.00 0.00
12:35 pm 12:35 Sunny 25 -3.9 -5 -20.8 26 26 NNW 8 13 30.41 1030 10 16 0.00 0.00
12:55 pm 12:55 Sunny 26 -3.2 -6 -20.9 24 24 Calm 30.38 1029 10 16 0.00 0.00
1:15 pm 13:15 Sunny 27 -2.6 -6 -21.1 23 23 NNW 6 9 30.36 1028 10 16 0.00 0.00
1:35 pm 13:35 Sunny 29 -1.6 -6 -21 21 21 N 9 15 30.34 1027 10 16 0.00 0.00
1:55 pm 13:55 Sunny 29 -1.5 -6 -21.1 21 21 NW 8 13 30.33 1027 10 16 0.00 0.00
2:15 pm 14:15 Sunny 31 -0.8 -5 -20.6 21 21 W 6 9 30.31 1027 10 16 0.00 0.00
2:35 pm 14:35 Sunny 31 -0.7 -6 -21 20 20 SW 6 9 30.30 1026 10 16 0.00 0.00
2:55 pm 14:55 Sunny 32 -0.1 -5 -20.7 20 20 W 7 11 30.29 1026 10 16 0.00 0.00
3:15 pm 15:15 Sunny 32 0.2 -5 -20.7 19 19 W 8 13 30.28 1026 10 16 0.00 0.00
3:35 pm 15:35 Sunny 33 0.7 -5 -20.6 19 19 WSW 7 11 30.27 1025 10 16 0.00 0.00
3:55 pm 15:55 Sunny 34 1 -5 -20.7 18 18 WSW 3 6 30.26 1025 10 16 0.00 0.00
4:15 pm 16:15 Sunny 34 1.3 -5 -20.6 18 18 SW 6 9 30.24 1024 10 16 0.00 0.00
4:35 pm 16:35 Sunny 35 1.5 -5 -20.5 18 18 SW 10 17 30.24 1024 10 16 0.00 0.00
4:55 pm 16:55 Sunny 35 1.5 -5 -20.5 18 18 SW 9 15 30.23 1024 10 16 0.00 0.00
5:15 pm 17:15 Sunny 34 1.1 -5 -20.4 18 18 WSW 8 13 30.23 1024 10 16 0.00 0.00
5:35 pm 17:35 Sunny 33 0.7 -4 -20 20 20 SW 9 15 30.23 1024 10 16 0.00 0.00
5:55 pm 17:55 Sunny 32 0.1 -4 -20 21 21 SSW 7 11 30.23 1024 10 16 0.00 0.00
6:15 pm 18:15 Clear 31 -0.8 -4 -20 22 22 SSW 6 9 30.24 1024 10 16 0.00 0.00
6:35 pm 18:35 Clear 28 -2 -4 -20.2 24 24 SSW 8 13 30.25 1025 10 16 0.00 0.00
6:55 pm 18:55 Clear 26 -3.1 -5 -20.4 25 25 SSW 7 11 30.27 1025 10 16 0.00 0.00
7:15 pm 19:15 Clear 26 -3.2 -5 -20.5 25 25 SSW 9 15 30.28 1025 10 16 0.00 0.00
7:35 pm 19:35 Clear 25 -3.8 -5 -20.4 27 27 SSW 7 11 30.28 1025 10 16 0.00 0.00
7:55 pm 19:55 Clear 24 -4.5 -5 -20.5 28 28 SSW 8 13 30.28 1025 10 16 0.00 0.00
8:15 pm 20:15 Clear 23 -4.9 -5 -20.5 29 29 SSW 6 9 30.28 1026 10 16 0.00 0.00
8:35 pm 20:35 Clear 23 -5.2 -4 -20.2 30 30 SSW 6 9 30.29 1026 10 16 0.00 0.00
8:55 pm 20:55 Clear 23 -5 -4 -20 30 30 SW 7 11 30.27 1025 10 16 0.00 0.00
9:15 pm 21:15 Clear 24 -4.7 -4 -19.8 30 30 SSW 10 17 30.27 1025 10 16 0.00 0.00
9:35 pm 21:35 Clear 24 -4.7 -4 -20 29 29 SSW 12 19 30.26 1025 10 16 0.00 0.00
9:55 pm 21:55 Clear 24 -4.3 -3 -19.5 30 30 SSW 10 17 30.26 1025 10 16 0.00 0.00
10:15 pm 22:15 Clear 25 -3.7 -3 -19.5 28 28 SSW 13 20 30.25 1024 10 16 0.00 0.00
10:35 pm 22:35 Clear 25 -3.8 -3 -19.3 29 29 SW 9 15 30.24 1024 10 16 0.00 0.00
10:55 pm 22:55 Clear 24 -4.3 -2 -19 31 31 SSW 9 15 30.24 1024 10 16 0.00 0.00
11:15 pm 23:15 Clear 25 -4.1 -2 -18.8 31 31 SW 10 17 30.24 1024 10 16 0.00 0.00
11:35 pm 23:35 Clear 25 -3.7 0 -18 32 32 SW 13 20 30.23 1024 10 16 0.00 0.00
11:55 pm 23:55 Clear 26 -3.6 1 -17 35 35 SW 12 19 30.22 1023 10 16 0.00 0.00

Powered by AerisWeather